map of DWC home
DWC - Airport
Location
City:  Jebel Ali, Dubai, United Arab Emirates
Name:Al Maktoum International Airport
Old (Alt.):Dubai World Central International Airport
ICAO:OMDW
IATA:DWC

Details
Type:Airport (Aerodrome, Airfield)
Use:International (customs port of entry)
Latitude:2453'10"N (24.886111)
Longitude:5510'20"E (55.172222)
Variation:1.95E (WMM2015 magnetic declination)
0.05 annual change
Runways:1
Longest:14764 ft (4500 m)

Time
Time Zone:UTC+4
Local Time:

Weather
METAR:OMDW 080900Z 29011KT 250V320 9999 SCT031 27/19 Q1018 NOSIG
TAF:OMDW 072250Z 0800/0906 20005KT 3000 BR NSC PROB40 0800/0806 0100 FG VV///
BECMG 0805/0807 8000 NSW
BECMG 0806/0808 29013KT
BECMG 0816/0818 22005KT PROB30 0822/0906 3000 BR

Related Locations
Nearby:
Farthest:GMR: 11799 mi / 18989 km
Mangareva [Totegegie], Gambier Islands, PF

Find:

   beyond  
but within

Other Information
Maps:
NOTAMs:
Links:
Sources:

  
flag of United Arab Emirates
flag of Dubai
  

Sectional Chart

Flight Planning
at skyvector.com

Satellite Image

Google Maps Satellite view

 

Copyright © 2004-2016 Karl L. Swartz. All rights reserved.
The Great Circle Mapper name and logo are trademarks of the Great Circle Mapper.
All other trademarks mentioned herein belong to their respective owners.
Please see credits for attibutions and further copyright information.

  Follow gcmap on Facebook Follow gcmap on Twitter Follow gcmap on Google+ GCmap on LinkedIn

hCard Microformat

Geo Microformat